sat.trackr.live / text

‹ back to catalog

STARLINK-37790

NORAD 69312 · 2026-119S

PAYLOAD ACTIVE UNKNOWN

§ Identity

Operator
Country
US
Launch date
2026-05-30
Launch site
AFWTR
Launch vehicle
Mass (kg)
RCS (m²)

Purposes: comms

External: N2YO · Heavens-Above · Gunter

§ Orbital elements

Epoch: 2026-09-20T00:43:34.394016Z

Period
93.91 min
Inclination
97.2834°
Eccentricity
0.0001245
Mean motion
15.33449123 rev/d
Perigee alt
464.7 km
Apogee alt
466.4 km
Semi-major
6,843.7 km
B*
2.1093e-4
RAAN
287.8066°
Arg perigee
101.6344°
Mean anomaly
258.5038°
Rev number
1,859

§ Raw data

STARLINK-377901 69312U 26119S   26263.03025919  .00006742  00000+0  21093-3 0  99942 69312  97.2834 287.8066 0001245 101.6344 258.5038 15.33449123 18593

JSON: /api/v1/satellites/69312 · /tle

For live sub-satellite position, see the globe view (requires WebGL).

§ Visibility from observer

Set your observer location to see the next 7 days of passes ≥ 10°. The values pass through the URL so the page stays shareable.

No JS? Fill the form by hand. The geolocation button needs JavaScript.